Total_Precipitation_Accumulation
0.00 0.01 0.01 0.01 0.00 0.00 0.00 0.00 0.00 0.00 0.00 0.02 0.00 0.00 0.00 0.00 0.00 0.00 0.00 0.00 0.00 0.00 0.00 0.00 0.00 0.00 0.00 0.00 0.00 0.00 0.00 0.00 0.00 0.00 0.00 0.00 0.00 0.00 0.00 0.01 0.00 0.01 0.00 0.00
0.01 0.01 0.02 0.02 0.01 0.01 0.00 0.00 0.00 0.00 0.00 0.01 0.00 0.00 0.00 0.00 0.00 0.00 0.00 0.00 0.00 0.00 0.00 0.00 0.00 0.00 0.00 0.00 0.00 0.00 0.01 0.03 0.02 0.01 0.02 0.01 0.00 0.00 0.00 0.00 0.01 0.06 0.05 0.01
0.02 0.03 0.03 0.02 0.02 0.02 0.00 0.00 0.00 0.00 0.00 0.01 0.02 0.04 0.00 0.00 0.00 0.02 0.04 0.02 0.00 0.00 0.00 0.00 0.00 0.00 0.00 0.00 0.00 0.00 0.03 0.02 0.02 0.01 0.01 0.01 0.01 0.00 0.00 0.01 0.04 0.02 0.00 0.00
0.05 0.04 0.03 0.03 0.04 0.03 0.00 0.01 0.01 0.01 0.00 0.02 0.05 0.13 0.10 0.05 0.05 0.04 0.04 0.08 0.11 0.09 0.04 0.01 0.00 0.00 0.00 0.00 0.00 0.01 0.03 0.04 0.01 0.00 0.00 0.00 0.02 0.02 0.01 0.01 0.01 0.05 0.01 0.00
0.05 0.04 0.02 0.03 0.09 0.05 0.03 0.04 0.05 0.02 0.00 0.00 0.00 0.04 0.07 0.06 0.10 0.12 0.07 0.17 0.10 0.13 0.30 0.28 0.17 0.09 0.06 0.03 0.02 0.05 0.06 0.10 0.02 0.02 0.00 0.00 0.00 0.00 0.01 0.01 0.01 0.04 0.01 0.01
0.05 0.03 0.03 0.04 0.12 0.15 0.06 0.03 0.03 0.07 0.04 0.00 0.02 0.01 0.01 0.02 0.06 0.03 0.06 0.11 0.11 0.04 0.05 0.14 0.17 0.15 0.10 0.09 0.14 0.09 0.08 0.09 0.08 0.06 0.00 0.02 0.07 0.00 0.00 0.00 0.00 0.00 0.00 0.00
0.07 0.07 0.07 0.07 0.11 0.29 0.14 0.06 0.09 0.13 0.07 0.03 0.02 0.01 0.01 0.02 0.03 0.08 0.01 0.01 0.08 0.04 0.00 0.05 0.03 0.01 0.01 0.01 0.03 0.08 0.18 0.14 0.18 0.09 0.03 0.11 0.03 0.00 0.00 0.00 0.00 0.00 0.00 0.00
0.08 0.09 0.09 0.09 0.12 0.31 0.19 0.14 0.16 0.18 0.11 0.04 0.02 0.01 0.00 0.00 0.00 0.00 0.01 0.00 0.00 0.00 0.02 0.10 0.08 0.01 0.00 0.00 0.00 0.00 0.04 0.10 0.38 0.22 0.08 0.05 0.00 0.00 0.00 0.00 0.00 0.00 0.00 0.00
0.09 0.09 0.08 0.12 0.16 0.27 0.23 0.12 0.26 0.27 0.26 0.06 0.03 0.02 0.01 0.06 0.05 0.01 0.01 0.01 0.00 0.01 0.07 0.20 0.21 0.07 0.02 0.01 0.00 0.00 0.00 0.02 0.19 0.28 0.25 0.06 0.00 0.00 0.00 0.01 0.06 0.00 0.00 0.00
0.11 0.11 0.11 0.13 0.14 0.27 0.29 0.13 0.16 0.24 0.29 0.04 0.03 0.04 0.06 0.09 0.15 0.14 0.03 0.03 0.01 0.02 0.11 0.21 0.16 0.08 0.05 0.03 0.02 0.01 0.02 0.09 0.26 0.24 0.23 0.07 0.03 0.00 0.00 0.08 0.08 0.00 0.00 0.00
0.13 0.11 0.15 0.18 0.20 0.36 0.34 0.19 0.25 0.47 0.40 0.10 0.04 0.06 0.04 0.04 0.08 0.15 0.10 0.06 0.10 0.16 0.37 0.36 0.23 0.22 0.13 0.13 0.10 0.03 0.07 0.17 0.26 0.30 0.44 0.45 0.12 0.03 0.08 0.10 0.01 0.00 0.00 0.00
0.13 0.19 0.21 0.19 0.21 0.37 0.47 0.30 0.20 0.31 0.48 0.15 0.01 0.00 0.00 0.00 0.00 0.04 0.06 0.11 0.16 0.30 0.45 0.46 0.33 0.24 0.18 0.23 0.34 0.18 0.24 0.32 0.34 0.43 0.52 0.41 0.24 0.27 0.17 0.14 0.06 0.01 0.01 0.00
0.17 0.21 0.23 0.22 0.20 0.24 0.39 0.14 0.14 0.15 0.11 0.02 0.00 0.00 0.00 0.00 0.01 0.02 0.07 0.05 0.16 0.37 0.54 0.52 0.37 0.26 0.26 0.17 0.25 0.29 0.29 0.29 0.36 0.34 0.36 0.21 0.19 0.12 0.11 0.11 0.10 0.05 0.02 0.01
0.20 0.25 0.36 0.39 0.26 0.24 0.26 0.14 0.09 0.11 0.07 0.04 0.00 0.00 0.00 0.00 0.02 0.03 0.03 0.04 0.06 0.15 0.36 0.71 0.48 0.34 0.30 0.31 0.34 0.20 0.22 0.25 0.37 0.41 0.27 0.15 0.09 0.09 0.11 0.08 0.05 0.04 0.04 0.03
0.20 0.24 0.26 0.25 0.28 0.26 0.13 0.05 0.01 0.06 0.10 0.07 0.00 0.01 0.00 0.01 0.02 0.03 0.01 0.04 0.14 0.22 0.33 0.35 0.35 0.35 0.41 0.41 0.42 0.52 0.44 0.41 0.46 0.47 0.47 0.45 0.30 0.32 0.22 0.14 0.15 0.15 0.12 0.11
0.20 0.15 0.11 0.20 0.24 0.14 0.03 0.01 0.07 0.06 0.12 0.23 0.04 0.04 0.00 0.02 0.04 0.04 0.05 0.09 0.19 0.45 0.56 0.46 0.56 0.35 0.38 0.40 0.41 0.43 0.35 0.44 0.60 0.58 0.63 0.66 0.64 0.57 0.57 0.47 0.45 0.40 0.31 0.29
0.07 0.07 0.08 0.06 0.08 0.08 0.04 0.10 0.17 0.20 0.04 0.05 0.03 0.03 0.04 0.03 0.01 0.07 0.08 0.21 0.66 0.66 0.80 0.66 0.37 0.31 0.20 0.30 0.35 0.37 0.38 0.45 0.56 0.58 0.46 0.48 0.54 0.80 0.80 0.72 0.78 0.58 0.53 0.57
0.03 0.02 0.01 0.02 0.04 0.04 0.08 0.16 0.15 0.09 0.05 0.05 0.11 0.07 0.03 0.01 0.00 0.08 0.09 0.25 0.38 0.33 0.46 0.29 0.22 0.18 0.13 0.24 0.41 0.33 0.30 0.26 0.30 0.46 0.47 0.64 0.63 0.50 0.51 0.53 0.50 0.41 0.50 0.52
0.00 0.00 0.00 0.00 0.00 0.01 0.07 0.22 0.13 0.31 0.08 0.17 0.13 0.08 0.02 0.00 0.00 0.11 0.26 0.28 0.11 0.14 0.17 0.18 0.08 0.13 0.33 0.46 0.33 0.26 0.31 0.28 0.36 0.32 0.31 0.33 0.31 0.36 0.33 0.26 0.26 0.26 0.33 0.35
0.00 0.00 0.00 0.01 0.01 0.00 0.03 0.12 0.12 0.20 0.26 0.08 0.07 0.03 0.02 0.02 0.02 0.18 0.37 0.47 0.10 0.08 0.16 0.07 0.12 0.39 0.47 0.40 0.35 0.33 0.29 0.27 0.24 0.16 0.17 0.16 0.14 0.16 0.16 0.16 0.18 0.20 0.22 0.22
0.00 0.00 0.00 0.00 0.00 0.00 0.00 0.00 0.04 0.06 0.10 0.01 0.01 0.02 0.04 0.05 0.22 0.23 0.50 0.31 0.10 0.07 0.12 0.04 0.11 0.27 0.34 0.30 0.25 0.23 0.20 0.15 0.12 0.13 0.13 0.10 0.09 0.07 0.07 0.05 0.05 0.06 0.07 0.08
0.00 0.00 0.00 0.00 0.00 0.00 0.00 0.00 0.01 0.01 0.03 0.02 0.01 0.01 0.02 0.07 0.14 0.28 0.27 0.14 0.04 0.12 0.05 0.01 0.11 0.31 0.27 0.20 0.19 0.13 0.06 0.03 0.02 0.01 0.01 0.01 0.00 0.01 0.00 0.00 0.00 0.00 0.00 0.00
0.00 0.00 0.00 0.00 0.00 0.00 0.02 0.02 0.02 0.03 0.02 0.02 0.05 0.04 0.01 0.01 0.04 0.15 0.06 0.03 0.10 0.04 0.02 0.06 0.18 0.20 0.15 0.12 0.07 0.02 0.01 0.00 0.00 0.00 0.00 0.00 0.00 0.00 0.00 0.00 0.00 0.00 0.00 0.00
0.00 0.00 0.00 0.00 0.02 0.07 0.10 0.08 0.07 0.07 0.03 0.04 0.05 0.04 0.02 0.00 0.00 0.02 0.01 0.03 0.01 0.01 0.04 0.10 0.16 0.13 0.09 0.03 0.01 0.01 0.01 0.00 0.00 0.00 0.00 0.00 0.00 0.00 0.00 0.00 0.00 0.00 0.00 0.00
0.00 0.00 0.03 0.10 0.10 0.04 0.01 0.01 0.01 0.03 0.04 0.07 0.04 0.04 0.00 0.00 0.00 0.00 0.00 0.00 0.01 0.05 0.11 0.14 0.13 0.07 0.02 0.01 0.01 0.01 0.01 0.01 0.01 0.01 0.01 0.01 0.00 0.00 0.00 0.00 0.00 0.00 0.00 0.00
0.00 0.02 0.04 0.03 0.02 0.00 0.00 0.00 0.01 0.01 0.04 0.04 0.02 0.00 0.00 0.00 0.00 0.00 0.01 0.01 0.06 0.11 0.12 0.12 0.06 0.02 0.01 0.01 0.01 0.01 0.01 0.01 0.01 0.01 0.01 0.01 0.00 0.00 0.00 0.00 0.00 0.00 0.00 0.00
0.00 0.03 0.04 0.03 0.02 0.02 0.01 0.01 0.00 0.00 0.01 0.00 0.00 0.00 0.01 0.00 0.00 0.02 0.03 0.07 0.10 0.08 0.04 0.04 0.03 0.03 0.02 0.01 0.01 0.01 0.01 0.01 0.00 0.00 0.00 0.01 0.00 0.00 0.00 0.00 0.00 0.00 0.00 0.00